Hillsdale, MI

10:56 AM EDT on September 21, 2017 (GMT -0400)
Hillsdale Municipal

Weather History for KJYM - May, 2014

Change the Weather History Date:

Wednesday, May 7, 2014

  Actual Average Record
Temperature  
Mean Temperature 55 °F -  
Max Temperature 66 °F 66 °F 84 °F (2015)
Min Temperature 44 °F 41 °F 23 °F (1974)
Degree Days  
Heating Degree Days 10    
Growing Degree Days 5 (Base 50)    
Moisture  
Dew Point 46 °F    
Average Humidity 71    
Maximum Humidity 91    
Minimum Humidity 57    
Precipitation  
Precipitation 0.00 in - - ()
Sea Level Pressure  
Sea Level Pressure 29.98 in    
Wind  
Wind Speed 13 mph (East)    
Max Wind Speed 22 mph    
Max Gust Speed 29 mph    
Visibility 10 miles    
Events Rain    
Averages and records for this station are not official NWS values.
T = Trace of Precipitation, MM = Missing Value Source: NWS Daily Summary

Daily Weather History Graph

Daily Weather History Graph

Search for Another Location

Airport or City:

Trip Planner

Search our weather history database for the weather conditions in past years. The results will help you decide how hot, cold, wet, or windy it might be!

Date:

Astronomy

May. 07, 2014 Rise Set
Actual Time 6:26 AM EDT 8:43 PM EDT
Civil Twilight 5:55 AM EDT 9:14 PM EDT
Nautical Twilight 5:17 AM EDT 9:53 PM EDT
Astronomical Twilight 4:35 AM EDT 10:35 PM EDT
Moon 1:41 PM EDT (5/7) 2:32 AM EDT (5/7)
Length of Visible Light 15h 18m
Length of Day
14h 16m
First Quarter, 55% of the Moon is Illuminated
May 7
First Quarter
May 14
Full
May 21
Last Quarter
May 28
New
Jun 5
First Quarter

Hourly Weather History & Observations

Time (EDT) Temp. Windchill Dew Point Humidity Pressure Visibility Wind Dir Wind Speed Gust Speed Precip Events Conditions
12:15 AM 49.3 °F - 36.9 °F 62% 30.04 in 10.0 mi East 8.1 mph - N/A   Scattered Clouds
12:34 AM 49.3 °F - 37.2 °F 63% 30.02 in 10.0 mi East 15.0 mph - N/A   Scattered Clouds
12:55 AM 49.6 °F - 37.2 °F 62% 30.01 in 10.0 mi East 15.0 mph - N/A   Mostly Cloudy
1:15 AM 49.6 °F - 36.5 °F 61% 30.01 in 10.0 mi East 15.0 mph 18.4 mph N/A   Mostly Cloudy
1:34 AM 49.5 °F - 36.3 °F 61% 30.01 in 10.0 mi East 16.1 mph 21.9 mph N/A   Mostly Cloudy
1:55 AM 49.3 °F - 36.1 °F 61% 30.03 in 10.0 mi East 11.5 mph 17.3 mph N/A   Overcast
2:14 AM 48.0 °F - 37.6 °F 67% 30.00 in 10.0 mi East 21.9 mph 28.8 mph N/A Rain Light Rain
2:34 AM 47.5 °F - 38.5 °F 71% 30.00 in 10.0 mi East 15.0 mph - N/A Rain Light Rain
2:55 AM 47.7 °F - 37.8 °F 69% 30.00 in 10.0 mi East 16.1 mph 21.9 mph N/A   Overcast
3:14 AM 46.2 °F 39.5 °F 40.5 °F 80% 30.01 in 1.0 mi East 16.1 mph 21.9 mph N/A   Overcast
3:35 AM 44.8 °F 36.6 °F 42.4 °F 91% 29.97 in 2.5 mi ESE 20.7 mph 26.5 mph N/A   Overcast
3:55 AM 46.6 °F - 42.4 °F 85% 29.97 in 10.0 mi ESE 18.4 mph 25.3 mph N/A   Overcast
4:14 AM 47.8 °F - 40.1 °F 75% 29.97 in 10.0 mi SE 16.1 mph 21.9 mph N/A   Overcast
4:35 AM 48.0 °F - 39.9 °F 74% 29.99 in 10.0 mi East 11.5 mph - N/A   Overcast
4:54 AM 47.7 °F - 41.4 °F 79% 29.99 in 10.0 mi East 11.5 mph - N/A   Overcast
5:14 AM 46.8 °F - 41.4 °F 81% 29.98 in 10.0 mi East 13.8 mph - N/A   Overcast
5:34 AM 46.2 °F 40.8 °F 42.1 °F 85% 29.98 in 10.0 mi East 11.5 mph - N/A   Overcast
5:54 AM 46.0 °F 40.6 °F 42.1 °F 86% 29.99 in 10.0 mi East 11.5 mph - N/A   Overcast
6:15 AM 46.2 °F 40.8 °F 41.9 °F 85% 29.98 in 10.0 mi ESE 11.5 mph - N/A   Overcast
6:34 AM 46.2 °F 40.8 °F 42.3 °F 86% 29.98 in 10.0 mi East 11.5 mph 20.7 mph N/A   Scattered Clouds
6:54 AM 46.2 °F 40.8 °F 43.0 °F 88% 29.99 in 10.0 mi East 11.5 mph 18.4 mph N/A   Scattered Clouds
7:15 AM 46.8 °F - 43.5 °F 88% 30.00 in 10.0 mi East 9.2 mph - N/A   Scattered Clouds
7:34 AM 46.8 °F - 43.9 °F 90% 30.03 in 10.0 mi ENE 10.4 mph - N/A   Scattered Clouds
7:55 AM 47.3 °F - 44.4 °F 90% 30.03 in 10.0 mi ENE 12.7 mph 17.3 mph N/A   Mostly Cloudy
8:15 AM 47.8 °F - 44.8 °F 89% 30.02 in 10.0 mi East 13.8 mph 21.9 mph N/A   Scattered Clouds
8:34 AM 47.7 °F - 44.6 °F 89% 30.02 in 10.0 mi East 13.8 mph 23.0 mph N/A   Clear
8:55 AM 48.6 °F - 44.8 °F 87% 30.02 in 10.0 mi East 15.0 mph 20.7 mph N/A   Clear
9:15 AM 50.4 °F - 45.7 °F 84% 30.03 in 10.0 mi East 13.8 mph 18.4 mph N/A   Clear
9:34 AM 51.3 °F - 45.7 °F 81% 30.02 in 10.0 mi ESE 16.1 mph 23.0 mph N/A   Clear
9:55 AM 51.8 °F - 46.4 °F 82% 30.00 in 10.0 mi East 13.8 mph - N/A   Clear
10:14 AM 54.0 °F - 47.5 °F 79% 30.01 in 10.0 mi East 15.0 mph - N/A   Clear
10:35 AM 55.4 °F - 47.8 °F 76% 30.00 in 10.0 mi ESE 15.0 mph 19.6 mph N/A   Clear
10:55 AM 55.4 °F - 48.0 °F 76% 30.01 in 10.0 mi East 15.0 mph 21.9 mph N/A   Clear
11:14 AM 54.7 °F - 47.7 °F 77% 30.01 in 10.0 mi East 15.0 mph 24.2 mph N/A   Clear
11:35 AM 54.7 °F - 47.8 °F 78% 30.01 in 10.0 mi East 13.8 mph - N/A   Clear
11:55 AM 56.7 °F - 48.2 °F 73% 30.01 in 10.0 mi ESE 16.1 mph 24.2 mph N/A   Clear
12:14 PM 59.2 °F - 49.5 °F 70% 29.99 in 10.0 mi SE 17.3 mph 20.7 mph N/A   Clear
12:35 PM 61.0 °F - 49.8 °F 67% 29.99 in 10.0 mi ESE 16.1 mph 23.0 mph N/A   Clear
1:14 PM 62.2 °F - 48.9 °F 62% 29.99 in 10.0 mi ESE 16.1 mph 21.9 mph N/A   Clear
1:35 PM 61.9 °F - 49.8 °F 65% 29.98 in 10.0 mi ESE 16.1 mph - N/A   Clear
1:54 PM 62.1 °F - 50.0 °F 65% 29.98 in 10.0 mi SE 11.5 mph - N/A   Clear
2:14 PM 62.2 °F - 50.2 °F 65% 29.99 in 10.0 mi ESE 10.4 mph 17.3 mph N/A   Clear
2:35 PM 61.9 °F - 50.4 °F 66% 29.98 in 10.0 mi ESE 13.8 mph - N/A   Clear
2:54 PM 62.8 °F - 50.4 °F 64% 29.98 in 10.0 mi East 15.0 mph - N/A   Clear
3:15 PM 63.7 °F - 50.4 °F 62% 29.97 in 10.0 mi ESE 15.0 mph - N/A   Clear
3:35 PM 65.1 °F - 51.3 °F 61% 29.97 in 10.0 mi ESE 10.4 mph - N/A   Clear
3:54 PM 64.8 °F - 50.7 °F 60% 29.96 in 10.0 mi East 13.8 mph - N/A   Clear
4:15 PM 65.1 °F - 50.7 °F 60% 29.94 in 10.0 mi ESE 11.5 mph - N/A   Clear
4:35 PM 65.8 °F - 51.3 °F 59% 29.93 in 10.0 mi ESE 10.4 mph - N/A   Clear
4:54 PM 66.4 °F - 51.4 °F 59% 29.93 in 10.0 mi East 13.8 mph - N/A   Clear
5:15 PM 66.0 °F - 51.1 °F 59% 29.95 in 10.0 mi East 6.9 mph - N/A   Clear
5:34 PM 65.7 °F - 50.4 °F 58% 29.96 in 10.0 mi ENE 8.1 mph - N/A   Scattered Clouds
5:54 PM 66.0 °F - 50.9 °F 58% 29.92 in 10.0 mi East 9.2 mph - N/A   Clear
6:15 PM 66.9 °F - 51.3 °F 57% 29.94 in 10.0 mi East 10.4 mph 16.1 mph N/A   Clear
6:34 PM 66.6 °F - 51.1 °F 57% 29.95 in 10.0 mi East 12.7 mph - N/A   Clear
6:55 PM 65.7 °F - 51.1 °F 59% 29.92 in 10.0 mi East 18.4 mph - N/A   Clear
7:15 PM 65.7 °F - 50.7 °F 58% 29.94 in 10.0 mi East 10.4 mph - N/A   Clear
7:34 PM 64.9 °F - 51.1 °F 61% 29.94 in 10.0 mi East 12.7 mph - N/A   Clear
7:55 PM 63.3 °F - 51.6 °F 66% 29.94 in 10.0 mi East 15.0 mph - N/A   Clear
8:14 PM 62.2 °F - 50.5 °F 65% 29.95 in 10.0 mi East 11.5 mph - N/A   Clear
8:34 PM 59.4 °F - 48.6 °F 67% 29.96 in 10.0 mi East 13.8 mph 19.6 mph N/A   Clear
8:55 PM 57.0 °F - 47.1 °F 69% 29.96 in 10.0 mi East 15.0 mph - N/A   Clear
9:14 PM 54.9 °F - 46.0 °F 72% 29.95 in 10.0 mi East 16.1 mph 20.7 mph N/A   Clear
9:35 PM 54.7 °F - 45.0 °F 70% 29.95 in 10.0 mi East 11.5 mph 20.7 mph N/A   Clear
9:55 PM 54.1 °F - 44.8 °F 71% 29.96 in 10.0 mi East 11.5 mph - N/A   Clear
10:14 PM 54.7 °F - 44.8 °F 69% 29.96 in 10.0 mi East 10.4 mph - N/A   Clear
10:35 PM 54.9 °F - 44.1 °F 67% 29.96 in 10.0 mi East 15.0 mph 18.4 mph N/A   Clear
10:55 PM 54.3 °F - 43.5 °F 67% 29.96 in 10.0 mi ESE 11.5 mph - N/A   Clear
11:14 PM 54.1 °F - 43.3 °F 67% 29.95 in 10.0 mi ESE 13.8 mph 19.6 mph N/A   Clear
11:35 PM 54.1 °F - 43.9 °F 68% 29.94 in 10.0 mi ESE 11.5 mph - N/A   Clear
11:54 PM 54.1 °F - 43.9 °F 68% 29.94 in 10.0 mi ESE 12.7 mph - N/A   Clear